Tracking 28790 objects as of 19-Apr-2024
HD Live streaming from Space Station
objects crossing your sky now

STARLINK-1259

Track STARLINK-1259 now!
10-day predictions
STARLINK-1259 is classified as:


NORAD ID: 45403
Int'l Code: 2020-019AV
Perigee: 553.4 km
Apogee: 555.4 km
Inclination: 53.1 °
Period: 95.6 minutes
Semi major axis: 6925 km
RCS: Unknown
Launch date: March 18, 2020
Source: United States (US)
Launch site: AIR FORCE EASTERN TEST RANGE (AFETR)
Your satellite tracking list
Your tracking list is empty




NASA's NSSDC Master Catalog

Two Line Element Set (TLE):
1 45403U 20019AV  24109.83075141  .00001133  00000-0  94942-4 0  9993
2 45403  53.0556 353.5084 0001402 112.1488 247.9650 15.06386781225975
Source of the keplerian elements: AFSPC